Find Kineis-4D

NORAD ID: 63302 Int'l Des: 2025-056 Owner: KINEIS Country: F operational
LEOCIRCULARRETROGRADESSO

实时位置

正在加载3D地球...

关于 Kineis-4D

正在加载描述...

即将过境

Passes for default location (London). Set your location on the main map for personalized predictions.

高度历史

Loading altitude history...

两行轨道根数

1 63302U 25056C 26106.96581564 -.00000014 00000-0 54362-5 0 9992
2 63302 97.9489 232.6984 0003141 135.5703 224.5757 14.72331441 58127
Epoch: Apr 16, 2026 • Age: 14 hours

当前状态

高度 661.1 km
速度 7.53 km/s
星下点 57.45°N, 28.47°E
发射日期 Mar 18, 2025
运行时间 1 years
类型 other

技术详情

分类 Payload
质量 28.00 kg
干质量 28.00 kg
总质量 28.00 kg
长度 0.40 m
直径 0.20 m
跨度 1.60 m
形状 Box+ 2 pan + ant
制造商 KINEIS
平台类型 Cubesat 16U
阶段状态 In Orbit
所有者/国家 KINEIS/F

Most Searched